Flag for Netherlands Weather past 2 weeks in Wageningen, Netherlands

Now
57 °F

Sprinkles. Partly cloudy.


Feels Like: 55 °F
Forecast: 49 / 56 °F
Wind: 10 mph from East

Location: Deelen

Current Time: May 5, 2015 at 2:15:22 AM

Latest Report: May 5, 2015 at 1:25 AM


Visibility: 5 mi

Pressure: 29.50 "Hg

Humidity: 88%

Dew point: 54 °F

Location of WageningenLocation

Historic Weather in Wageningen — Graph

°F

Wageningen temperature yesterday

Maximum temperature yesterday: 66 °F (at 4:55 PM)
Minimum temperature yesterday: 52 °F (at 3:25 AM)
Average temperature yesterday: 59 °F

Past Weeks' High & Low Weather Summary

 TemperatureHumidityPressure
High68 °F (Apr 24, 3:25 PM)100% (Apr 21, 4:25 AM)30.48 "Hg (Apr 21, 4:25 AM)
Low25 °F (Apr 28, 6:25 AM)28% (Apr 21, 1:55 PM)29.53 "Hg (May 3, 3:55 PM)
Average50 °F71%29.95 "Hg
* Reported Apr 20 12:25 AM — May 5 12:55 AM, Wageningen, Weather by CustomWeather, © 2015

Note: Actual official high and low records may vary slightly from our data, if they occured in-between our weather recording intervals... More about our weather records

Advertising

Wageningen weather history for previous 24 hours

 ConditionsComfort  
Time TempWeatherWind HumidityBarometerVisibility
12:55 AM
Tue, May 5
55 °FSprinkles. Partly cloudy.10 mph94%29.53 "Hg6 mi
12:25 AM57 °FDrizzle. Overcast.9 mph82%29.56 "HgN/A
11:55 PM
Mon, May 4
59 °FLight rain. Overcast.9 mph77%29.56 "HgN/A
10:55 PM61 °FPartly cloudy.8 mph63%29.62 "HgN/A
10:25 PM61 °FMostly cloudy.7 mph63%29.62 "HgN/A
9:55 PM61 °FMostly cloudy.5 mph63%29.65 "HgN/A
9:25 PM61 °FOvercast.7 mph63%29.65 "HgN/A
8:55 PM61 °FBroken clouds.5 mph63%29.65 "HgN/A
8:25 PM63 °FPartly sunny.6 mph64%29.68 "HgN/A
7:55 PM64 °FScattered clouds.6 mph56%29.68 "HgN/A
7:25 PM66 °FPassing clouds.9 mph52%29.68 "HgN/A
6:55 PM66 °FPassing clouds.8 mph52%29.71 "HgN/A
6:25 PM66 °FMostly cloudy.9 mph52%29.71 "HgN/A
5:55 PM66 °FMostly cloudy.6 mph52%29.71 "HgN/A
5:25 PM66 °FPartly sunny.8 mph56%29.74 "HgN/A
4:55 PM66 °FPassing clouds.6 mph56%29.74 "HgN/A
4:25 PM64 °FMostly cloudy.6 mph60%29.74 "HgN/A
3:55 PM64 °FMostly cloudy.6 mph60%29.74 "HgN/A
3:25 PM63 °FMostly cloudy.12 mph64%29.77 "HgN/A
2:55 PM63 °FMore clouds than sun.9 mph64%29.77 "HgN/A
2:25 PM63 °FCloudy.12 mph64%29.77 "HgN/A
1:55 PM64 °FPartly sunny.13 mph60%29.77 "HgN/A
1:25 PM63 °FBroken clouds.10 mph68%29.77 "HgN/A
12:55 PM61 °FBroken clouds.13 mph68%29.77 "HgN/A
12:25 PM61 °FMore clouds than sun.13 mph68%29.77 "HgN/A
11:55 AM61 °FBroken clouds.14 mph72%29.77 "HgN/A
11:25 AM59 °FPartly sunny.14 mph77%29.77 "HgN/A
10:55 AM59 °FBroken clouds.13 mph72%29.74 "HgN/A
10:25 AM59 °FBroken clouds.14 mph72%29.74 "HgN/A
9:55 AM57 °FBroken clouds.14 mph82%29.74 "HgN/A
9:25 AM57 °FBroken clouds.15 mph82%29.74 "HgN/A
8:55 AM57 °FMostly cloudy.13 mph82%29.71 "HgN/A
8:25 AM55 °FCloudy.15 mph88%29.71 "HgN/A
7:55 AM55 °FOvercast.15 mph88%29.71 "HgN/A
7:25 AM55 °FScattered clouds.12 mph88%29.68 "HgN/A
6:55 AM55 °FOvercast.9 mph82%29.68 "HgN/A
6:25 AM54 °FOvercast.9 mph88%29.68 "HgN/A
5:55 AM54 °FOvercast.9 mph88%29.68 "HgN/A
5:25 AM54 °FOvercast.9 mph88%29.68 "HgN/A
4:55 AM54 °FPassing clouds.8 mph82%29.68 "HgN/A
4:25 AM52 °FPartly cloudy.8 mph88%29.65 "HgN/A
3:55 AM52 °FPassing clouds.9 mph88%29.65 "HgN/A
3:25 AM52 °FPassing clouds.8 mph88%29.65 "HgN/A
2:55 AM54 °FPassing clouds.10 mph82%29.65 "HgN/A
2:25 AM54 °FPassing clouds.10 mph82%29.65 "HgN/A
Weather by CustomWeather, © 2015

See weather overviewHow to use our weather pages